Location: Churchill Northern Studies Centre
(58.7378°N, 93.8201°W)
Time: 16:13:29
(UTC-06:00)

Vanguard 2 Rocket - Visible Passes

Search period start: 19 February 2018 00:00
Search period end: 01 March 2018 00:00
Orbit: 555 x 3327 km, 32.9° (Epoch: 19 February)

Date Brightness Start Highest point End Pass type
(mag) Time Alt. Az. Time Alt. Az. Time Alt. Az.
19 Feb 10.3 02:24:43 25° SSE 02:24:43 25° SSE 02:34:39 10° SE visible
19 Feb 10.3 04:30:31 21° SW 04:33:15 22° SSW 04:45:54 10° SSE visible
20 Feb 10.6 01:28:33 19° SE 01:28:33 19° SE 01:34:01 10° SE visible
20 Feb 10.2 03:34:21 25° SSW 03:34:21 25° SSW 03:46:55 10° SSE visible
20 Feb 10.6 05:40:10 11° WSW 05:45:58 13° SW 05:53:21 10° SSW visible
21 Feb 10.9 00:32:26 11° ESE 00:32:26 11° ESE 00:32:50 10° ESE visible
21 Feb 10.4 02:38:15 23° SSE 02:38:15 23° SSE 02:47:10 10° SE visible
21 Feb 10.4 04:44:04 17° SW 04:46:00 18° SW 04:56:44 10° S visible
22 Feb 10.6 01:42:13 17° SE 01:42:13 17° SE 01:46:46 10° SE visible
22 Feb 10.4 03:48:02 21° SSW 03:48:02 21° SSW 03:58:27 10° SSE visible
23 Feb 10.5 02:52:04 20° S 02:52:04 20° S 02:59:09 10° SSE visible
23 Feb 10.6 04:57:53 13° SW 04:58:41 13° SW 05:05:35 10° SSW visible
24 Feb 10.7 01:56:10 15° SSE 01:56:10 15° SSE 01:59:06 10° SE visible
24 Feb 10.5 04:02:00 16° SSW 04:02:00 16° SSW 04:08:52 10° S visible
25 Feb 10.6 03:06:10 15° S 03:06:10 15° S 03:10:21 10° SSE visible
26 Feb 10.8 02:10:23 11° SSE 02:10:23 11° SSE 02:10:49 10° SSE visible
26 Feb 10.7 04:16:13 10° SSW 04:16:13 10° SSW 04:16:35 10° SSW visible
